USA 153

Last updated on Sun Jun 21 2026 00:03:03 GMT+0000 (Coordinated Universal Time)

1 26575U 00065A 26170.79469751 -.00000335 00000+0 00000+0 0 9990 2 26575 11.6293 35.4010 0002993 47.0413 246.1317 1.00269130 32959
UTC large
Height (km)
Speed (km/s)
/
Latitude / Longitude
Inclination (degrees)
Orbital Period (minutes)
Azimuth
Elevation
Range (km)
Doppler Factor

Next 0 passes for location: London (51.5072 / 0.1276)

No passes found over London.
USA 153